Regional Weather Roundup
Issued by NWS Binghamton, NY

Home | Current Version | Previous Version | Text Only | Print | Product List | Glossary On
Versions: 1 2 3 4 5 6 7 8 9 10 11 12 13 14 15 16 17 18 19 20 21 22 23 24 25 26 27 28
000
ASUS41 KBGM 251810
RWRBGM
RWRBGM
BINGHAMTON REGIONAL WEATHER ROUNDUP
NATIONAL WEATHER SERVICE BINGHAMTON NY
200 PM EDT SAT OCT 25 2014

Note: "fair" indicates few or no clouds below 12,000 feet with no
significant weather and/or obstructions to visibility.

* = Station(s) that does not report precipitation, such as rain,
snow, etc, also no thunder or fog.

!NYZ009-015>018-022>025-036-037-044>046-055>057-062-251900
...CENTRAL NEW YORK...

CITY           SKY/WX    TMP DP  RH WIND       PRES   REMARKS
BINGHAMTON     SUNNY     60  44  55 SW14G22   29.70F
CORTLAND       FAIR      61  46  59 SW12G18   29.68F
DANSVILLE      CLOUDY    67  38  34 W12G22    29.65F
ELMIRA         MOSUNNY   67  44  43 W20       29.67F
ITHACA         MOSUNNY   64  45  50 W10G17    29.68F
HAMILTON       MOCLDY    63  45  51 SW7       29.67F
MONTICELLO     MOSUNNY   57  43  58 SW13G18   29.74F
NORWICH        MOSUNNY   63  43  48 SW7       29.68F
ONEONTA        SUNNY     55  41  58 W13G22    29.70S
PENN YAN       PTSUNNY   65  44  46 SW13G22   29.65F
ROME           MOSUNNY   61  46  57 W12G17    29.65F
SIDNEY         MOSUNNY   63  45  51 SW8G17    29.70S
SYRACUSE       PTSUNNY   65  47  52 SW16      29.64F
$$

!PAZ038>040-043-044-047-048-072-251900
...NORTHEAST PENNSYLVANIA...

CITY           SKY/WX    TMP DP  RH WIND       PRES   REMARKS
HAZLETON       MOSUNNY   61  43  51 W7        29.80F
SCRANTON       MOSUNNY   63  42  46 SW12G17   29.74F
$$
&&
KEY
WCI = WIND CHILL INDEX
VSB = VISIBILITY
HX  = HEAT INDEX
$$



USA.gov is the U.S. government's official web portal to all federal, state and local government web resources and services.